Location: Sundre
(51.7972°N, 114.6405°W)
Time: 11:16:36
(UTC-06:00)

N. Korean satellite - Visible Passes

Search period start: 15 October 2019 00:00
Search period end: 25 October 2019 00:00
Orbit: 455 x 508 km, 97.2° (Epoch: 14 October)

Date Brightness Start Highest point End Pass type
(mag) Time Alt. Az. Time Alt. Az. Time Alt. Az.
15 Oct 8.5 07:12:12 10° NNE 07:15:30 34° E 07:18:49 10° SSE visible
15 Oct 9.4 19:26:50 10° SSW 19:29:37 23° W 19:32:26 10° NW visible
16 Oct 9.7 06:47:24 10° NE 06:50:03 19° E 06:52:42 10° SE visible
17 Oct 10.5 06:23:36 10° ENE 06:24:30 11° E 06:25:26 10° ESE visible
18 Oct 7.5 07:29:33 10° NNE 07:33:04 55° E 07:36:38 10° S visible
18 Oct 10.0 19:45:10 10° SW 19:47:16 15° W 19:49:23 10° NW visible
19 Oct 8.9 07:04:29 10° NNE 07:07:41 29° E 07:10:53 10° SSE visible
19 Oct 9.0 19:18:46 10° SSW 19:21:45 27° W 19:24:47 10° NW visible
20 Oct 10.0 06:39:49 10° NE 06:42:12 16° E 06:44:35 10° SE visible
22 Oct 7.9 07:21:44 10° NNE 07:25:14 45° E 07:28:46 10° S visible
22 Oct 9.8 19:36:53 10° SW 19:39:21 18° W 19:41:51 10° NW visible
23 Oct 9.2 06:56:45 10° NE 06:59:49 25° E 07:02:52 10° SSE visible
23 Oct 8.6 19:10:43 10° SSW 19:13:51 33° W 19:17:04 10° NNW visible
24 Oct 10.2 06:32:17 10° NE 06:34:17 14° E 06:36:18 10° ESE visible
